Temperature
23 24 22 22 21 21 21 20 20 20 20 20 20 20 20 20 20 20 19 19 19 19 19 19 19 19 20 20 20 20 20 20 20 20 20 20 19 19 18 18 17 17 18
24 24 23 22 21 21 21 20 20 20 20 20 20 20 20 20 20 20 20 20 20 20 19 19 19 20 20 20 20 20 20 20 20 20 20 20 20 19 19 18 17 18 18
24 24 23 22 22 21 21 20 20 20 20 20 20 21 21 20 20 20 20 20 20 20 20 20 20 20 20 20 20 20 20 20 20 19 19 19 19 19 19 19 18 18 18
24 24 23 23 22 21 21 21 20 20 20 20 20 20 21 20 20 20 20 20 20 20 20 20 20 20 20 20 20 20 20 20 20 19 18 18 18 19 19 19 19 19 19
24 24 24 23 22 22 21 21 20 20 20 20 21 20 20 20 20 20 20 20 20 20 20 20 20 20 20 20 20 20 20 20 20 19 18 18 18 19 19 19 19 19 19
23 24 24 23 22 22 21 21 21 20 20 20 20 20 20 20 20 20 20 20 20 20 20 19 19 20 20 20 20 20 20 20 19 19 19 18 18 19 18 19 19 19 19
23 24 24 23 23 22 21 21 21 20 20 20 20 20 20 20 20 20 20 19 19 19 19 19 19 19 19 19 19 19 19 19 19 19 18 18 18 18 18 18 18 18 18
23 24 24 23 23 22 22 21 21 21 20 20 20 20 20 20 20 20 19 19 19 19 19 19 19 19 19 19 19 19 19 19 19 19 18 18 18 18 18 18 18 18 18
24 24 24 23 23 22 22 21 21 21 21 20 20 20 20 20 20 20 19 19 19 19 19 19 19 19 19 19 19 19 19 19 19 19 18 18 18 18 18 18 18 18 18
24 24 24 23 23 22 22 22 21 21 21 20 20 20 20 20 20 20 19 19 19 19 19 19 19 19 19 19 19 19 19 19 19 19 19 18 18 18 18 18 18 18 18
24 23 23 23 23 22 22 22 21 21 21 21 20 20 20 20 19 19 19 19 19 19 19 19 19 19 19 19 19 19 19 19 19 19 18 18 18 18 18 18 18 18 18
24 23 23 22 22 21 21 21 21 21 21 20 20 20 20 20 19 19 19 19 19 19 19 19 19 19 19 19 19 18 18 19 19 18 18 19 19 19 18 18 19 19 18
24 23 23 22 22 21 21 21 20 20 20 20 20 19 19 19 19 19 19 19 19 19 19 19 19 19 19 19 18 18 18 19 18 18 19 19 19 19 18 18 19 19 19
24 23 23 22 22 22 22 21 21 20 20 20 20 20 19 19 19 19 19 19 19 19 19 19 19 19 18 18 18 18 18 19 19 19 19 19 19 19 18 19 19 19 19
24 23 23 22 22 22 21 21 21 21 21 20 20 20 19 19 19 19 19 19 19 19 19 19 19 19 18 18 18 18 18 19 19 19 19 19 19 18 18 19 19 19 19
24 24 23 22 22 21 21 21 21 20 20 20 20 20 19 19 19 19 19 19 19 19 19 19 19 19 19 18 18 19 19 19 19 19 19 19 19 18 19 18 19 19 19
24 24 23 22 21 21 21 21 20 20 20 20 20 20 19 19 18 18 18 18 18 18 18 18 18 18 18 18 18 18 18 19 19 19 19 18 18 18 18 18 19 19 19
25 24 23 22 21 21 21 20 20 20 20 20 20 19 19 19 18 18 18 18 18 18 18 18 18 18 18 18 18 18 18 18 18 18 18 19 18 18 18 18 19 19 19
25 24 23 22 21 21 20 20 20 20 20 20 20 19 19 19 18 18 18 17 17 17 17 17 17 17 17 17 17 17 18 18 18 18 18 19 18 18 18 18 18 18 19
24 23 22 22 21 21 20 21 20 20 20 20 20 20 19 18 18 18 17 17 17 17 17 17 17 17 17 17 17 17 17 18 18 18 18 18 18 18 18 18 18 18 18
23 22 22 21 21 21 21 20 20 20 20 20 20 20 19 18 18 18 17 17 17 16 16 16 16 16 16 16 16 17 17 18 18 18 18 18 18 18 18 18 18 18 18
22 22 21 21 21 21 21 21 21 21 20 20 20 19 19 18 18 17 17 17 16 16 16 16 16 16 16 16 16 16 16 17 18 18 18 18 18 18 18 18 18 18 18
21 21 21 21 20 20 20 20 20 20 20 20 20 19 19 19 18 18 17 17 17 16 16 16 16 15 15 16 16 15 16 17 17 18 18 18 18 18 18 18 18 18 18
21 20 20 20 20 20 20 20 20 19 20 20 19 19 19 18 18 17 17 17 17 16 16 16 15 15 15 15 15 15 15 15 15 16 17 18 18 18 18 18 17 17 18
20 20 19 19 19 19 19 19 19 19 19 19 19 19 18 18 18 17 17 17 17 16 16 16 16 16 15 15 15 15 15 15 15 15 16 17 17 17 18 17 17 17 17
19 19 19 18 18 18 18 18 18 18 18 18 18 18 18 17 17 17 17 17 17 16 16 16 16 15 15 15 14 14 14 14 15 15 15 16 16 17 17 17 17 17 17
Wind_Speed
19 20 21 18 17 17 17 17 16 16 15 14 13 12 12 12 12 12 12 12 11 11 11 10 10 9 9 10 10 10 11 11 11 11 11 12 11 10 10 8 6 12 13
23 21 22 19 17 17 17 17 16 15 15 14 13 12 11 11 10 10 10 10 10 10 9 9 9 9 9 9 9 8 8 7 7 7 8 10 10 9 8 8 10 13 12
22 21 21 19 18 17 17 16 16 15 14 14 13 12 11 10 10 9 9 9 9 9 9 8 8 8 8 7 7 6 6 4 3 4 6 8 11 9 8 9 11 11 10
22 20 20 20 18 17 16 16 15 15 14 13 12 11 10 10 9 9 8 8 7 7 7 7 7 7 7 6 6 5 4 2 3 4 8 7 11 11 9 8 7 7 7
20 19 21 21 19 17 16 15 15 14 13 13 12 11 10 9 8 7 7 6 6 6 6 6 6 6 6 5 5 4 4 3 5 8 10 5 12 14 11 8 7 6 6
20 20 22 20 18 17 15 14 14 13 12 12 11 10 9 8 7 7 6 6 5 5 5 5 5 6 6 6 6 6 5 6 7 11 11 6 12 16 13 10 8 7 7
20 20 21 20 18 16 15 14 13 12 11 11 10 9 8 8 7 7 6 6 6 6 6 6 6 7 8 8 8 8 8 9 10 12 10 8 12 18 15 13 10 9 9
21 19 20 20 18 16 15 13 12 11 11 10 9 9 8 8 8 8 8 9 9 9 8 8 9 9 10 10 11 11 11 12 12 13 13 10 16 21 18 15 12 11 11
22 19 17 18 17 16 15 14 13 12 11 10 10 10 9 10 10 11 12 12 12 12 12 12 12 12 12 13 13 13 14 14 13 12 13 9 19 22 19 17 15 13 13
20 19 17 16 16 15 15 15 14 13 13 12 11 11 12 12 14 15 16 16 16 15 15 14 14 15 15 15 16 16 16 15 15 15 15 11 20 22 20 18 16 15 14
16 17 17 16 14 15 16 17 17 15 15 13 13 14 13 12 14 16 20 20 20 19 17 16 16 16 16 17 19 19 17 14 15 15 16 15 21 22 20 18 17 16 16
13 14 15 16 14 13 12 15 14 14 15 14 13 14 13 13 13 13 13 21 22 22 20 18 18 17 16 14 18 23 15 17 16 15 15 18 23 23 21 19 18 18 18
11 12 12 14 11 10 7 11 8 8 11 14 14 13 13 11 10 10 6 12 16 18 15 15 17 15 14 13 12 13 16 16 14 14 11 19 24 22 21 19 18 18 19
13 13 12 12 8 4 3 5 5 4 5 6 9 11 7 3 4 3 2 2 6 8 8 8 7 11 13 14 13 9 13 12 10 9 8 17 21 21 20 20 19 19 19
12 12 11 11 10 6 3 1 3 2 2 2 3 4 3 2 3 3 2 2 4 5 3 4 4 5 6 5 6 7 7 7 8 8 8 17 21 21 21 20 20 20 20
16 14 12 10 11 8 5 3 2 2 1 2 1 1 1 1 1 2 4 4 4 5 5 4 6 5 4 4 6 7 7 8 8 9 8 13 19 21 22 22 21 21 22
16 13 12 10 11 9 7 6 5 5 3 2 1 1 2 2 1 2 4 5 4 5 6 5 6 5 6 6 7 8 8 8 8 7 9 9 12 20 24 23 23 22 23
13 12 12 12 12 10 7 5 3 2 0 0 1 1 2 1 2 2 3 4 3 4 4 5 6 6 6 6 6 7 8 7 9 8 8 9 10 12 18 23 24 23 23
10 11 10 8 11 10 8 5 5 2 1 2 1 2 3 2 3 2 3 4 3 4 4 6 4 4 6 7 7 8 8 9 9 10 9 8 9 11 13 16 23 24 23
9 9 9 7 8 8 7 4 3 3 3 2 1 3 4 2 3 3 4 4 4 4 4 4 6 6 6 7 9 9 7 8 8 9 11 9 9 13 15 16 15 18 23
8 9 8 9 7 5 4 5 4 3 2 1 2 5 3 2 4 3 4 5 5 5 6 7 6 7 6 6 6 7 8 10 11 10 10 10 11 11 12 13 13 13 14
9 9 8 8 8 6 4 2 2 2 1 2 3 4 3 2 3 3 4 4 5 5 7 6 6 5 6 5 5 5 5 6 7 11 10 11 12 10 11 12 10 10 10
5 7 8 8 7 5 5 3 2 2 2 2 2 2 3 1 1 1 2 3 4 5 5 6 6 7 6 6 5 4 4 4 5 4 6 8 9 8 8 7 7 8 10
6 4 4 6 5 4 4 1 2 2 2 0 1 2 2 1 3 2 3 3 3 5 6 6 6 6 7 7 6 5 6 7 6 5 5 5 7 7 7 6 6 5 7
7 5 4 4 4 3 1 1 1 3 3 2 1 1 1 3 4 5 3 1 3 4 5 5 6 7 6 7 7 7 7 7 8 7 8 6 5 4 5 5 5 4 3
11 8 6 4 3 3 2 3 2 4 4 5 5 4 3 4 3 3 2 0 3 4 5 6 6 8 7 8 8 7 7 7 6 7 8 7 6 5 4 3 3 2 2
Wind_Direction
125 132 133 131 132 134 136 137 136 133 131 129 125 121 117 112 107 101 99 98 97 96 95 95 93 89 87 85 83 81 81 82 86 90 94 95 94 93 91 84 91 107 104
126 133 134 134 135 136 138 139 138 137 135 133 130 128 124 120 116 111 109 107 105 103 100 99 97 93 94 95 93 93 93 95 102 111 119 117 109 100 89 67 65 110 111
125 134 136 136 138 138 139 141 142 141 139 137 135 134 132 128 124 121 119 116 114 112 111 109 108 105 104 105 105 107 109 116 136 156 178 157 130 120 103 89 92 108 114
129 140 141 140 140 141 141 143 145 145 143 142 141 141 139 137 134 131 128 126 123 122 121 121 121 121 121 122 124 128 136 166 224 240 232 200 148 138 129 116 115 120 126
135 140 139 145 143 144 145 147 148 149 149 149 149 149 149 148 147 144 143 143 142 140 141 141 141 141 143 146 152 160 178 217 254 264 263 220 145 148 147 144 145 148 151
137 137 143 148 147 148 149 151 153 154 155 156 157 159 161 163 165 166 168 171 172 173 173 173 173 172 173 177 184 193 206 229 256 259 256 230 151 157 157 161 170 179 183
137 135 146 150 151 153 155 157 159 161 163 165 167 172 178 183 189 193 196 199 203 205 206 204 203 203 201 201 205 211 218 229 248 269 272 244 159 161 165 170 182 195 201
132 136 145 151 154 158 161 164 166 169 172 176 181 187 195 203 210 216 218 219 221 223 224 224 221 220 218 217 217 219 224 234 241 248 252 239 167 166 173 178 187 201 211
132 135 148 154 159 163 167 171 174 178 182 187 194 201 209 217 224 228 230 229 229 229 230 230 229 227 227 227 226 225 227 233 253 266 262 235 174 175 179 184 190 202 215
132 141 153 157 162 168 174 179 182 185 190 197 204 211 219 226 231 233 233 229 231 231 231 232 232 232 231 231 231 230 231 234 241 251 255 244 182 181 185 189 196 206 216
140 146 156 158 166 176 179 180 185 191 197 202 210 218 223 233 237 231 229 227 225 227 228 229 232 234 235 235 234 232 231 233 238 240 241 223 185 185 190 195 202 211 218
148 154 160 158 169 183 184 164 185 192 195 204 212 207 213 229 245 251 221 217 219 221 224 227 231 235 236 241 235 228 227 229 240 243 237 202 185 189 194 200 206 214 220
159 165 161 155 169 180 169 162 190 194 180 198 216 206 208 224 240 251 222 204 212 218 223 228 227 230 232 233 242 217 215 227 228 236 235 194 187 191 198 204 211 218 223
174 175 168 153 159 186 174 169 178 195 173 197 199 205 212 206 246 276 284 238 213 216 214 231 220 220 228 236 238 226 214 223 234 226 213 188 189 196 203 209 214 222 226
179 177 163 154 157 171 181 257 204 208 188 182 167 200 220 228 259 296 317 315 295 286 263 246 258 246 242 254 266 264 252 244 247 242 210 190 195 203 210 215 218 222 225
180 178 163 162 154 159 168 190 272 262 192 244 207 193 219 274 320 316 295 285 278 281 285 284 285 283 271 263 263 266 270 270 259 251 229 206 205 209 214 219 222 223 224
179 171 156 164 156 160 180 194 211 228 218 188 167 211 212 241 267 273 272 269 268 281 283 279 276 272 264 254 250 252 256 260 268 269 259 244 222 218 218 220 224 225 225
171 157 162 173 162 163 175 184 234 244 54 203 210 200 142 13 306 277 277 278 294 287 277 270 261 264 265 263 258 255 253 250 251 252 250 248 246 242 229 223 224 225 225
156 146 153 159 153 158 164 176 213 192 197 254 209 108 78 25 341 329 312 299 298 285 279 286 295 283 278 272 265 254 246 247 246 247 245 242 244 249 253 239 227 226 226
143 138 139 132 127 141 153 173 205 195 193 208 145 105 80 22 12 15 310 329 332 303 295 301 304 290 278 273 273 269 256 246 239 237 243 241 237 237 241 244 231 226 226
133 134 139 140 139 154 162 180 182 169 181 170 131 104 85 39 33 355 325 351 324 319 328 315 303 301 293 280 276 277 263 247 239 235 236 238 237 235 236 237 231 225 224
136 133 132 141 156 167 141 133 136 125 201 184 101 109 105 67 21 323 23 334 334 332 307 304 314 302 298 300 292 293 286 267 243 240 230 232 236 235 234 235 227 224 229
116 139 151 149 155 153 142 179 167 156 233 199 133 142 122 85 289 306 317 312 324 309 314 331 308 308 309 303 280 270 281 286 314 276 257 246 237 230 231 233 225 224 226
86 90 107 130 140 140 158 201 225 235 261 215 169 133 114 224 242 238 246 277 307 307 307 310 345 331 310 302 296 274 263 279 288 295 286 269 254 237 232 240 242 225 221
70 82 87 117 140 150 169 334 319 296 302 329 17 66 255 252 232 230 225 253 300 292 305 320 311 303 297 293 295 297 293 282 264 266 280 279 273 254 231 228 238 238 209
41 44 50 67 62 43 18 332 300 306 321 328 323 307 280 269 249 228 224 158 293 293 309 303 295 292 288 289 288 285 281 279 277 270 271 276 271 264 241 216 216 209 163
Height
1502 1504 1507 1510 1512 1515 1518 1520 1522 1524 1526 1528 1529 1531 1532 1534 1535 1536 1538 1539 1540 1541 1542 1543 1544 1545 1546 1547 1548 1549 1549 1550 1551 1551 1552 1552 1553 1553 1553 1554 1555 1556 1557
1500 1504 1507 1510 1513 1516 1518 1521 1523 1526 1528 1529 1531 1532 1534 1535 1537 1538 1539 1541 1542 1543 1544 1545 1546 1546 1547 1548 1549 1550 1551 1552 1552 1553 1553 1554 1555 1555 1555 1555 1556 1557 1559
1500 1504 1508 1511 1513 1516 1519 1522 1524 1527 1529 1531 1532 1534 1535 1537 1538 1539 1541 1542 1543 1544 1545 1546 1547 1547 1548 1549 1550 1551 1552 1553 1554 1554 1554 1555 1557 1557 1557 1557 1557 1558 1559
1501 1505 1508 1511 1514 1517 1520 1522 1525 1527 1530 1531 1533 1535 1536 1538 1539 1541 1542 1543 1544 1545 1545 1546 1547 1548 1549 1550 1550 1551 1552 1553 1554 1555 1555 1557 1558 1558 1559 1559 1559 1559 1560
1503 1506 1509 1512 1515 1517 1520 1523 1526 1528 1530 1532 1534 1535 1537 1538 1540 1541 1542 1543 1544 1545 1546 1547 1547 1548 1549 1550 1550 1551 1552 1553 1554 1555 1556 1558 1558 1559 1560 1560 1560 1560 1561
1505 1507 1510 1512 1515 1518 1521 1523 1526 1528 1530 1532 1534 1536 1537 1539 1540 1541 1542 1543 1544 1545 1545 1546 1547 1547 1548 1549 1550 1550 1551 1552 1553 1555 1556 1557 1558 1558 1559 1560 1560 1561 1561
1506 1507 1511 1513 1516 1518 1521 1523 1526 1528 1530 1532 1534 1535 1537 1538 1540 1541 1541 1542 1543 1544 1544 1545 1546 1546 1547 1548 1548 1549 1550 1551 1552 1553 1554 1556 1557 1557 1558 1559 1560 1560 1561
1506 1508 1511 1514 1516 1518 1521 1523 1526 1528 1530 1532 1533 1535 1536 1537 1538 1539 1540 1541 1542 1542 1543 1543 1544 1544 1545 1546 1546 1547 1548 1549 1550 1551 1552 1554 1555 1555 1556 1557 1558 1559 1559
1506 1508 1511 1514 1516 1518 1521 1523 1525 1527 1529 1531 1533 1534 1535 1536 1537 1538 1539 1539 1540 1540 1541 1541 1542 1542 1543 1543 1544 1545 1546 1546 1547 1548 1550 1552 1552 1552 1553 1554 1555 1556 1557
1506 1508 1511 1513 1516 1518 1521 1523 1525 1527 1529 1530 1532 1533 1534 1535 1535 1536 1537 1537 1538 1538 1539 1539 1539 1540 1540 1541 1541 1542 1543 1544 1544 1545 1546 1548 1549 1549 1550 1551 1552 1553 1554
1507 1508 1510 1512 1515 1518 1520 1522 1525 1526 1528 1529 1530 1531 1532 1533 1533 1534 1535 1535 1536 1536 1537 1537 1537 1537 1538 1538 1539 1539 1540 1540 1541 1541 1543 1544 1546 1546 1547 1548 1548 1549 1550
1507 1509 1511 1512 1515 1518 1520 1521 1524 1525 1526 1528 1528 1529 1530 1531 1532 1533 1534 1533 1533 1534 1534 1534 1534 1535 1535 1535 1535 1536 1537 1538 1538 1538 1540 1541 1542 1543 1544 1544 1545 1546 1547
1505 1508 1511 1512 1514 1518 1521 1521 1523 1525 1525 1526 1527 1528 1528 1529 1530 1532 1532 1531 1531 1531 1531 1531 1531 1531 1532 1532 1532 1533 1534 1534 1535 1536 1537 1538 1538 1539 1540 1540 1541 1542 1543
1504 1507 1509 1511 1513 1516 1519 1521 1523 1525 1525 1526 1526 1527 1528 1528 1529 1530 1530 1530 1530 1530 1529 1529 1529 1529 1529 1529 1530 1531 1531 1531 1532 1533 1534 1534 1534 1535 1536 1536 1537 1538 1539
1501 1504 1507 1509 1510 1513 1516 1518 1521 1523 1524 1525 1525 1526 1526 1526 1526 1527 1527 1527 1527 1527 1527 1526 1526 1526 1526 1527 1527 1528 1529 1528 1528 1529 1530 1530 1530 1532 1533 1533 1533 1534 1535
1498 1502 1504 1507 1508 1511 1513 1516 1518 1520 1522 1523 1523 1523 1523 1523 1523 1523 1523 1523 1523 1523 1522 1522 1522 1522 1522 1522 1522 1523 1523 1524 1524 1525 1525 1525 1525 1527 1528 1529 1530 1530 1530
1496 1499 1502 1504 1506 1508 1511 1513 1516 1518 1520 1520 1520 1521 1520 1520 1520 1520 1519 1519 1519 1518 1518 1517 1517 1517 1517 1517 1517 1517 1517 1518 1519 1520 1520 1521 1520 1521 1522 1523 1524 1525 1526
1494 1496 1500 1502 1504 1506 1508 1510 1513 1515 1517 1517 1518 1518 1518 1518 1517 1516 1516 1516 1515 1514 1514 1513 1513 1512 1512 1511 1511 1511 1511 1512 1512 1513 1514 1514 1514 1516 1516 1517 1518 1519 1521
1491 1492 1496 1500 1502 1504 1506 1508 1510 1512 1513 1515 1515 1515 1515 1515 1515 1514 1513 1513 1512 1511 1510 1509 1509 1508 1507 1506 1506 1505 1505 1505 1506 1506 1506 1507 1508 1509 1510 1511 1512 1513 1514
1488 1489 1493 1497 1500 1502 1504 1505 1508 1510 1511 1513 1514 1513 1513 1513 1512 1511 1511 1510 1509 1507 1507 1506 1505 1504 1503 1502 1501 1500 1500 1499 1499 1499 1499 1500 1501 1502 1502 1503 1505 1506 1508
1485 1486 1491 1495 1498 1500 1502 1503 1506 1508 1509 1510 1511 1510 1510 1510 1509 1508 1508 1507 1506 1505 1504 1502 1501 1500 1499 1498 1497 1495 1494 1493 1493 1492 1492 1493 1493 1494 1496 1496 1498 1499 1501
1484 1486 1489 1493 1495 1498 1500 1502 1504 1505 1506 1508 1508 1508 1508 1507 1507 1506 1505 1504 1503 1501 1500 1499 1498 1496 1495 1495 1494 1492 1490 1489 1487 1487 1487 1486 1487 1488 1489 1490 1492 1493 1495
1484 1486 1488 1492 1495 1496 1498 1500 1503 1503 1504 1506 1505 1505 1505 1505 1504 1503 1502 1501 1499 1498 1497 1496 1495 1493 1492 1492 1491 1491 1489 1485 1484 1483 1483 1483 1482 1483 1484 1485 1486 1487 1489
1484 1486 1488 1491 1495 1497 1497 1499 1501 1502 1503 1503 1503 1503 1502 1502 1502 1501 1499 1498 1497 1495 1494 1493 1492 1490 1489 1487 1487 1487 1486 1485 1484 1480 1479 1479 1479 1479 1480 1480 1482 1483 1484
1485 1486 1490 1492 1494 1496 1496 1497 1499 1500 1500 1500 1501 1500 1500 1500 1499 1498 1497 1496 1494 1492 1491 1489 1488 1486 1485 1484 1483 1482 1481 1480 1480 1479 1476 1475 1475 1475 1475 1476 1477 1478 1479
1488 1490 1492 1493 1494 1494 1495 1495 1497 1496 1496 1497 1497 1497 1497 1497 1497 1496 1494 1492 1491 1489 1488 1486 1484 1482 1481 1480 1478 1477 1476 1476 1475 1474 1473 1471 1471 1471 1471 1472 1472 1473 1475